Regional Weather Roundup
Issued by NWS

Home | Current Version | Previous Version | Graphics & Text | Print | Product List | Glossary On
Versions: 1 2 3 4 5 6 7 8 9 10 11 12 13 14 15 16 17 18 19 20 21 22 23 24 25 26 27 28 29 30 31 32 33 34 35 36 37 38 39 40 41 42 43 44 45 46 47 48 49 50
000
ASUS43 KFSD 021002
RWRSD

WEATHER ROUNDUP FOR SOUTH DAKOTA
NATIONAL WEATHER SERVICE SIOUX FALLS SD
500 AM CDT THU OCT 02 2014

NOTE: "FAIR" INDICATES FEW OR NO CLOUDS BELOW 12,000 FEET WITH NO
SIGNIFICANT WEATHER AND/OR OBSTRUCTIONS TO VISIBILITY.


SDZ001>005-009-010-012>017-021100-
NORTHWEST AND NORTH CENTRAL SOUTH DAKOTA

CITY           SKY/WX    TMP DP  RH WIND       PRES   REMARKS
BUFFALO          N/A     38  34  85 W8        29.90R
FAITH            N/A     42  38  85 W7        29.94F
MOBRIDGE       MOCLDY    49  45  86 NW7       29.89S
$$

SDZ012>016-024>037-041>051-057-063-072>074-021100-
SOUTHWEST AND SOUTH CENTRAL SOUTH DAKOTA

CITY           SKY/WX    TMP DP  RH WIND       PRES   REMARKS
RAPID CTY ARPT CLEAR     40  36  86 NW9       29.99S
PIERRE         PTCLDY    50  46  86 W9        29.92S
CUSTER         CLEAR     37  32  82 NW6       30.03R
ELLSWORTH AFB  CLEAR     39  35  87 W8        29.98S
PHILIP         CLEAR     45  42  89 W9        29.96S
PINE RIDGE     CLEAR     42  41  96 SW6       30.01R
WINNER         LGT RAIN  52  49  89 W8        29.95S
$$

SDZ004>011-016>023-039-040-021100-
NORTHEAST SOUTH DAKOTA

CITY           SKY/WX    TMP DP  RH WIND       PRES   REMARKS
ABERDEEN       CLOUDY    47  45  93 W3        29.88S
WATERTOWN      MOCLDY    49  47  93 N3        29.87S
SISSETON         N/A     51  48  89 CALM      29.85S
$$

SDZ017-020-022-023-036>040-048>070-021100-
SOUTHEAST SOUTH DAKOTA

CITY           SKY/WX    TMP DP  RH WIND       PRES   REMARKS
SIOUX FALLS    CLOUDY    54  49  83 N8        29.85R
HURON          LGT RAIN  51  48  89 W3        29.89F
CHAMBERLAIN    CLOUDY    51  49  94 W3        29.93R
MITCHELL       LGT RAIN  53  51  93 W5        29.90S
YANKTON        CLOUDY    54  50  87 W15       29.90R
$$

ABBREVIATIONS USED IN REMARKS
   TC - TEMPERATURE IN CELSIUS
  WCI - WIND CHILL INDEX
   HX - HEAT INDEX
  VSB - VISIBILITY




USA.gov is the U.S. government's official web portal to all federal, state and local government web resources and services.